Regional Weather Roundup
Issued by NWS Goodland, KS

Home | Current Version | Previous Version | Text Only | Print | Product List | Glossary Off
Versions: 1 2 3 4 5 6 7 8 9 10 11 12 13 14 15 16 17 18 19 20 21 22 23 24 25 26 27 28 29 30 31 32 33 34 35 36 37 38 39 40 41 42 43 44 45 46 47 48 49 50

000
ASUS43 KGLD 131908
RWRGLD

GOODLAND FORECAST AREA HOURLY WEATHER ROUNDUP
NATIONAL WEATHER SERVICE GOODLAND KS
100 PM MDT SUN JUL 13 2014

...OFFICIAL OBSERVATIONS...

CITY           SKY/WX    TMP DP  RH WIND       PRES   REMARKS
GOODLAND KS    PTSUNNY   84  60  44 E7        30.22F
HILL CITY KS   SUNNY     90  59  35 N7        30.13F
IMPERIAL NEB   LGT RAIN  84  59  42 NW7       30.18F
MCCOOK NEB     MOSUNNY   88  57  34 NW8       30.15F
AKRON CO       PTSUNNY   82  55  39 MISG      30.27F
BURLINGTON CO  MOSUNNY   82  58  43 SE10      30.25F
LIMON CO       PTSUNNY   76  55  48 E9        30.32F
$$

...UNOFFICIAL OBSERVATIONS...

CITY           SKY/WX    TMP DP  RH WIND       PRES   REMARKS
COLBY KS       SUNNY     86  64  48 E7        30.19F
GOVE KS          N/A     85  32  15 CALM        N/A
LENORA KS        N/A     87  32  14 MISG        N/A
NORTON KS      SUNNY     90  46  22 NE7G17    30.12F
OBERLIN KS     FAIR      88  54  31 E6        30.16
SHARON SPRINGS   N/A     82  64  54 N5G12       N/A
ST FRANCIS KS  PTSUNNY   84  54  34 N8        30.19
TRIBUNE KS     CLOUDY    79  27  14 E7        30.25F
WAKEENEY KS      N/A     88  54  30 MISG        N/A
KIT CARSON CO    N/A     80  59  48 N6G16       N/A
WRAY CO          N/A     86  59  39 SE3       30.21F
YUMA CO          N/A     80  61  51 E8          N/A
$$



USA.gov is the U.S. government's official web portal to all federal, state and local government web resources and services.